User: anonymous   Login
Location: Maddington
(51.2000°N, 1.9167°W)
Time: 02:02:49
(UTC+00:00)
Language:

Cosmos 1125 Rocket - Orbit

View from above orbital plane
View from above orbital plane
View from above satellite
View from above satellite

Ground track
Ground track

The orbit data is extracted from the following two-line orbital elements,

1 11511U 79078B   20328.50894695 +.00000117 +00000-0 +48469-4 0  9995
2 11511 074.0347 167.7629 0014605 106.0709 254.2054 14.36906447158621
Epoch (UTC): 23 November 2020 12:12:53
Eccentricity: 0.0014605
inclination: 74.0347°
perigee height: 758 km
apogee height: 779 km
right ascension of ascending node: 167.7629°
argument of perigee: 106.0709°
revolutions per day: 14.36906447
mean anomaly at epoch: 254.2054°
orbit number at epoch: 15862

The dashed part of the orbit path shows where the satellite is in the earth's shadow,  

DLR